Regional Weather Roundup
Issued by NWS

Home | Current Version | Previous Version | Text Only | Print | Product List | Glossary Off
Versions: 1 2 3 4 5 6 7 8 9 10 11 12 13 14 15 16 17 18 19 20 21 22 23 24 25 26 27 28 29 30 31 32 33 34 35 36 37 38 39 40 41 42 43 44 45 46 47 48 49 50

000
ASUS43 KLMK 291810
RWRKY
KENTUCKY REGIONAL WEATHER ROUNDUP
NATIONAL WEATHER SERVICE LOUISVILLE KY
200 PM EDT THU SEP 29 2016

NOTE "FAIR" INDICATES FEW OR NO CLOUDS BELOW 12,000 FEET
WITH NO SIGNIFICANT WEATHER AND/OR OBSTRUCTIONS TO VISIBILITY.

KYZ001>023-026-027-061>063-070>075-291900-
WESTERN AND SOUTH CENTRAL KENTUCKY

CITY           SKY/WX    TMP DP  RH WIND       PRES   REMARKS
PADUCAH        CLOUDY    59  55  87 W7        30.13S
HENDERSON      CLOUDY    63  52  67 N3        30.08F
OWENSBORO      PTSUNNY  N/A N/A N/A VRB3      30.09S
HOPKINSVILLE   CLOUDY    58  53  84 NW10      30.10F
BOWLING GREEN  CLOUDY    62  51  67 NW3       30.09F
GLASGOW        CLOUDY    59  51  73 SW6       30.09F
$$

KYZ024-025-028>034-038-045-046-053-291900-
NORTH CENTRAL KENTUCKY

CITY           SKY/WX    TMP DP  RH WIND       PRES   REMARKS
LOUISVILLE/SDF CLOUDY    62  52  69 NW6       30.07S
LOUISVILLE/LOU CLOUDY    61  52  72 W3        30.08S
FORT KNOX      PTSUNNY   61  52  72 W7        30.06S
$$

KYZ035>037-039>044-047>052-055>060-089>105-291900-
NORTHEAST KENTUCKY

CITY           SKY/WX    TMP DP  RH WIND       PRES   REMARKS
LEXINGTON      CLOUDY    63  49  60 NE3       30.06S
COVINGTON      PTSUNNY   63  52  67 NE9       30.08R
FRANKFORT      CLOUDY    65  51  60 N6        30.06S
$$

KYZ054-064>069-076>088-106>120-291900-
SOUTHEAST KENTUCKY

CITY           SKY/WX    TMP DP  RH WIND       PRES   REMARKS
JACKSON        CLOUDY    55  52  89 NW5       30.06S
LONDON         CLOUDY    61  48  62 CALM      30.06F
SOMERSET       CLOUDY    61  46  59 W6        30.08S
MIDDLESBORO    CLOUDY    62  51  66 N5        30.05F
MONTICELLO     CLOUDY    62  50  64 W9        30.09S
$$




USA.gov is the U.S. government's official web portal to all federal, state and local government web resources and services.